Location: B?dimalle
(17.1788°N, 80.5377°E)
Time: 17:53:40
(UTC+00:00)

A-11 Canister half - Visible Passes

Search period start: 18 February 2026 00:00
Search period end: 28 February 2026 00:00
Orbit: 1512 x 1687 km, 47.2° (Epoch: 18 February)

Date Brightness Start Highest point End Pass type
(mag) Time Alt. Az. Time Alt. Az. Time Alt. Az.
18 Feb 9.8 14:24:11 10° WSW 14:33:55 50° NW 14:41:14 19° NNE visible
18 Feb 11.1 16:36:01 10° NW 16:39:29 14° NW 16:39:29 14° NW visible
18 Feb 10.9 21:03:53 18° ENE 21:03:53 18° ENE 21:07:09 10° ENE visible
18 Feb 8.9 23:02:07 39° NW 23:06:20 81° NE 23:15:36 10° SE visible
19 Feb 9.7 14:00:58 10° WSW 14:10:48 54° NW 14:20:06 12° NNE visible
19 Feb 10.9 16:12:18 10° WNW 16:17:50 16° NNW 16:18:20 16° NNW visible
19 Feb 11.2 20:42:50 12° ENE 20:42:50 12° ENE 20:43:41 10° ENE visible
19 Feb 9.0 22:41:05 57° NNW 22:43:17 75° NE 22:52:33 10° SE visible
20 Feb 9.7 13:37:46 10° WSW 13:47:41 58° NW 13:57:38 10° NNE visible
20 Feb 10.9 15:48:37 10° WNW 15:54:33 17° NNW 15:57:08 15° N visible
20 Feb 9.0 22:20:05 70° NE 22:20:14 70° NE 22:29:29 10° SE visible
21 Feb 9.9 00:18:20 13° W 00:24:35 25° SW 00:31:44 10° S visible
21 Feb 9.6 13:14:36 10° SW 13:24:35 62° NW 13:34:37 10° NE visible
21 Feb 10.9 15:24:58 10° WNW 15:31:17 18° NNW 15:35:51 13° N visible
21 Feb 9.4 21:59:06 55° E 21:59:06 55° E 22:06:24 10° SE visible
21 Feb 9.8 23:57:21 20° W 00:01:34 28° SW 00:09:05 10° S visible
22 Feb 9.6 12:51:26 10° SW 13:01:28 67° NW 13:11:35 10° NE visible
22 Feb 10.9 15:01:21 10° WNW 15:08:02 19° NNW 15:14:29 10° NNE visible
22 Feb 10.0 21:38:08 36° ESE 21:38:08 36° ESE 21:43:18 10° ESE visible
22 Feb 9.6 23:36:23 28° WSW 23:38:35 31° SW 23:46:23 10° S visible
23 Feb 10.9 14:37:47 10° WNW 14:44:47 20° NNW 14:51:47 10° NNE visible
23 Feb 10.6 21:17:09 23° ESE 21:17:09 23° ESE 21:20:10 10° ESE visible
23 Feb 9.5 23:15:25 34° SW 23:15:35 34° SW 23:23:40 10° S visible
24 Feb 10.9 14:14:14 10° WNW 14:21:32 22° NNW 14:28:51 10° NNE visible
24 Feb 11.1 20:56:10 13° ESE 20:56:10 13° ESE 20:57:02 10° ESE visible
24 Feb 9.6 22:54:25 35° SSW 22:54:25 35° SSW 23:00:55 10° S visible
25 Feb 10.8 13:50:43 10° W 13:58:19 23° NNW 14:05:56 10° NNE visible
25 Feb 9.9 22:33:22 30° S 22:33:22 30° S 22:38:07 10° SSE visible
26 Feb 10.8 13:27:14 10° W 13:35:06 25° NNW 13:43:00 10° NNE visible
26 Feb 10.4 22:12:17 22° S 22:12:17 22° S 22:15:18 10° SSE visible
27 Feb 10.8 13:03:48 10° W 13:11:53 27° NW 13:20:03 10° NNE visible
27 Feb 10.8 21:51:09 15° SSE 21:51:09 15° SSE 21:52:28 10° SSE visible
